timestamp,wind_dir_avg,wind_spd_avg,wind_spd_max_dir,wind_spd_gust,battery_voltage,lat,long
2021-09-29 00:04:00+00:00,216.0,9.4,214.0,10.75,12.65,47.59359,-54.27349
2021-09-29 00:14:00+00:00,215.0,10.31,214.0,12.03,12.57,47.59359,-54.27349
2021-09-29 00:24:00+00:00,215.0,10.69,216.0,12.23,12.57,47.59359,-54.27349
2021-09-29 00:34:00+00:00,215.0,10.26,217.0,11.66,12.57,47.59359,-54.27349
2021-09-29 00:44:00+00:00,215.0,10.2,208.0,12.88,12.57,47.59359,-54.27349
2021-09-29 00:54:00+00:00,214.0,9.37,211.0,10.91,12.57,47.59359,-54.27349
2021-09-29 01:04:00+00:00,218.0,9.59,216.0,10.66,12.57,47.59359,-54.27349
2021-09-29 01:14:01+00:00,214.0,8.48,211.0,9.28,12.57,47.59359,-54.27349
2021-09-29 01:24:01+00:00,215.0,7.42,217.0,8.58,12.57,47.59359,-54.27349
2021-09-29 01:34:01+00:00,212.0,9.14,218.0,10.56,12.57,47.59359,-54.27349
2021-09-29 01:44:01+00:00,213.0,8.4,212.0,9.38,12.57,47.59359,-54.27349
2021-09-29 01:54:01+00:00,214.0,8.25,213.0,9.38,12.57,47.59359,-54.27349
2021-09-29 02:04:01+00:00,216.0,8.76,215.0,9.72,12.57,47.59359,-54.27349
2021-09-29 02:14:01+00:00,212.0,8.26,213.0,9.25,12.57,47.59359,-54.27349
2021-09-29 02:24:01+00:00,214.0,8.22,214.0,9.46,12.57,47.59359,-54.27349
2021-09-29 02:34:01+00:00,220.0,8.72,228.0,10.88,12.57,47.59359,-54.27349
2021-09-29 02:44:01+00:00,216.0,7.9,213.0,9.15,12.57,47.59359,-54.27349
2021-09-29 02:54:01+00:00,215.0,8.38,213.0,9.39,12.57,47.59359,-54.27349
2021-09-29 03:04:01+00:00,220.0,8.07,218.0,9.6,12.57,47.59359,-54.27349
2021-09-29 03:14:01+00:00,219.0,8.19,225.0,9.03,12.57,47.59359,-54.27349
2021-09-29 03:24:01+00:00,233.0,8.16,232.0,11.11,12.57,47.59359,-54.27349
2021-09-29 03:34:01+00:00,236.0,5.22,251.0,8.13,12.57,47.59359,-54.27349
2021-09-29 03:44:01+00:00,235.0,8.06,235.0,10.11,12.57,47.59359,-54.27349
2021-09-29 03:54:01+00:00,231.0,8.01,237.0,10.2,12.57,47.59359,-54.27349
2021-09-29 04:04:01+00:00,250.0,7.41,244.0,8.11,12.57,47.59359,-54.27349
2021-09-29 04:14:00+00:00,246.0,6.17,246.0,6.92,12.57,47.59359,-54.27349
2021-09-29 04:24:00+00:00,250.0,5.68,251.0,6.21,12.57,47.59359,-54.27349
2021-09-29 04:34:00+00:00,236.0,5.7,239.0,6.19,12.57,47.59359,-54.27349
2021-09-29 04:44:00+00:00,248.0,5.48,242.0,5.91,12.57,47.59359,-54.27349
2021-09-29 04:54:00+00:00,213.0,4.61,216.0,5.48,12.57,47.59359,-54.27349
2021-09-29 05:04:00+00:00,224.0,5.13,226.0,5.89,12.57,47.59359,-54.27349
2021-09-29 05:14:00+00:00,219.0,2.77,219.0,3.1,12.57,47.59359,-54.27349
2021-09-29 05:24:00+00:00,207.0,4.23,210.0,4.83,12.57,47.59359,-54.27349
2021-09-29 05:34:00+00:00,210.0,3.77,208.0,4.57,12.57,47.59359,-54.27349
2021-09-29 05:44:00+00:00,217.0,3.43,223.0,4.05,12.57,47.59359,-54.27349
2021-09-29 05:54:00+00:00,215.0,3.17,218.0,3.49,12.57,47.59359,-54.27349
2021-09-29 06:04:00+00:00,221.0,5.3,223.0,5.9,12.57,47.59359,-54.27349
2021-09-29 06:14:00+00:00,212.0,3.52,213.0,3.88,12.49,47.59359,-54.27349
2021-09-29 06:24:00+00:00,194.0,3.37,190.0,3.78,12.49,47.59359,-54.27349
2021-09-29 06:34:00+00:00,185.0,4.58,187.0,4.78,12.49,47.59359,-54.27349
2021-09-29 06:44:00+00:00,188.0,4.7,189.0,5.02,12.49,47.59359,-54.27349
2021-09-29 06:54:00+00:00,180.0,5.83,182.0,6.19,12.49,47.59359,-54.27349
2021-09-29 07:04:00+00:00,175.0,3.56,176.0,4.39,12.49,47.59359,-54.27349
2021-09-29 07:14:01+00:00,194.0,3.27,195.0,3.74,12.49,47.59359,-54.27349
2021-09-29 07:24:01+00:00,201.0,2.97,200.0,3.32,12.49,47.59359,-54.27349
2021-09-29 07:34:01+00:00,207.0,2.66,207.0,2.87,12.49,47.59359,-54.27349
2021-09-29 07:44:01+00:00,197.0,2.18,198.0,2.56,12.49,47.59359,-54.27349
2021-09-29 07:54:01+00:00,213.0,3.17,223.0,3.73,12.49,47.59359,-54.27349
2021-09-29 08:04:01+00:00,209.0,3.74,211.0,4.44,12.49,47.59359,-54.27349
2021-09-29 08:14:00+00:00,240.0,3.18,238.0,3.38,12.41,47.59359,-54.27349
2021-09-29 08:24:00+00:00,231.0,2.75,232.0,3.08,12.41,47.59359,-54.27349
2021-09-29 08:34:00+00:00,214.0,2.32,214.0,2.5,12.41,47.59359,-54.27349
2021-09-29 08:44:00+00:00,211.0,2.1,208.0,2.61,12.41,47.59359,-54.27349
2021-09-29 08:54:00+00:00,218.0,2.0,220.0,2.23,12.41,47.59359,-54.27349
2021-09-29 09:04:00+00:00,224.0,0.6,217.0,0.8,12.41,47.59359,-54.27349
2021-09-29 09:14:01+00:00,196.0,2.35,198.0,3.07,12.41,47.59359,-54.27349
2021-09-29 09:24:01+00:00,205.0,3.58,208.0,3.76,12.41,47.59359,-54.27349
2021-09-29 09:34:01+00:00,195.0,3.68,196.0,4.0,12.41,47.59359,-54.27349
2021-09-29 09:44:01+00:00,206.0,3.44,203.0,3.8,12.41,47.59359,-54.27349
2021-09-29 09:54:01+00:00,209.0,3.83,212.0,4.28,12.41,47.59359,-54.27349
2021-09-29 10:04:01+00:00,209.0,3.39,209.0,3.77,12.41,47.59359,-54.27349
2021-09-29 10:14:01+00:00,181.0,2.75,181.0,2.98,12.41,47.59359,-54.27349
2021-09-29 10:24:01+00:00,209.0,2.4,212.0,2.66,12.41,47.59359,-54.27349
2021-09-29 10:34:01+00:00,184.0,2.33,187.0,2.56,12.41,47.59359,-54.27349
2021-09-29 10:44:01+00:00,194.0,2.78,195.0,2.89,12.41,47.59359,-54.27349
2021-09-29 10:54:01+00:00,168.0,0.73,170.0,0.88,12.41,47.59359,-54.27349
2021-09-29 11:04:01+00:00,175.0,1.71,174.0,1.81,12.41,47.59359,-54.27349
2021-09-29 11:14:01+00:00,146.0,1.53,145.0,1.83,12.41,47.59359,-54.27349
2021-09-29 11:24:01+00:00,127.0,0.82,123.0,1.06,12.41,47.59359,-54.27349
2021-09-29 11:34:01+00:00,113.0,1.21,114.0,1.3,12.41,47.59359,-54.27349
2021-09-29 11:44:01+00:00,45.0,1.42,49.0,1.59,12.41,47.59359,-54.27349
2021-09-29 11:54:01+00:00,13.0,2.89,16.0,3.18,12.41,47.59359,-54.27349
2021-09-29 12:04:01+00:00,14.0,3.01,14.0,3.24,12.41,47.59359,-54.27349
2021-09-29 12:14:01+00:00,32.0,2.3,34.0,2.44,12.49,47.59359,-54.27349
2021-09-29 12:24:01+00:00,47.0,2.83,48.0,3.14,12.49,47.59359,-54.27349
2021-09-29 12:34:01+00:00,43.0,4.68,44.0,5.67,12.49,47.59359,-54.27349
2021-09-29 12:44:01+00:00,59.0,7.48,66.0,9.99,12.49,47.59359,-54.27349
2021-09-29 12:54:01+00:00,42.0,6.03,39.0,6.68,12.49,47.59359,-54.27349
2021-09-29 13:04:01+00:00,36.0,6.48,36.0,7.37,12.49,47.59359,-54.27349
2021-09-29 13:14:01+00:00,50.0,6.22,51.0,6.87,12.49,47.59359,-54.27349
2021-09-29 13:24:01+00:00,56.0,6.25,57.0,6.85,12.49,47.59359,-54.27349
2021-09-29 13:34:01+00:00,45.0,6.13,46.0,6.94,12.49,47.59359,-54.27349
2021-09-29 13:44:01+00:00,49.0,6.14,46.0,6.86,12.49,47.59359,-54.27349
2021-09-29 13:54:01+00:00,57.0,5.83,60.0,7.08,12.49,47.59359,-54.27349
2021-09-29 14:04:01+00:00,66.0,6.39,74.0,9.02,12.49,47.59359,-54.27349
2021-09-29 14:14:01+00:00,67.0,4.33,69.0,5.33,12.89,47.59359,-54.27349
2021-09-29 14:24:01+00:00,82.0,3.85,91.0,5.33,12.89,47.59359,-54.27349
2021-09-29 14:34:01+00:00,84.0,3.53,99.0,4.67,12.89,47.59359,-54.27349
2021-09-29 14:44:01+00:00,92.0,2.09,119.0,4.21,12.89,47.59359,-54.27349
2021-09-29 14:54:01+00:00,111.0,2.17,145.0,3.6,12.89,47.59359,-54.27349
2021-09-29 15:04:01+00:00,114.0,3.23,131.0,4.87,12.89,47.59359,-54.27349
2021-09-29 15:14:01+00:00,95.0,2.28,81.0,3.34,13.21,47.59359,-54.27349
2021-09-29 15:24:01+00:00,88.0,1.93,104.0,3.17,13.21,47.59359,-54.27349
2021-09-29 15:34:01+00:00,94.0,1.1,78.0,1.81,13.21,47.59359,-54.27349
2021-09-29 15:44:01+00:00,83.0,0.7,82.0,1.62,13.21,47.59359,-54.27349
2021-09-29 15:54:01+00:00,34.0,0.81,33.0,1.42,13.21,47.59359,-54.27349
2021-09-29 16:04:01+00:00,151.0,1.05,142.0,2.1,13.21,47.59359,-54.27349
2021-09-29 16:14:01+00:00,206.0,0.67,179.0,1.28,13.29,47.59359,-54.27349
2021-09-29 16:24:01+00:00,248.0,1.13,248.0,1.35,13.29,47.59359,-54.27349
2021-09-29 16:34:01+00:00,270.0,1.38,265.0,1.54,13.29,47.59359,-54.27349
2021-09-29 16:44:01+00:00,115.0,1.53,106.0,2.76,13.29,47.59359,-54.27349
2021-09-29 16:54:01+00:00,183.0,2.76,188.0,3.11,13.29,47.59359,-54.27349
2021-09-29 17:04:01+00:00,162.0,3.4,143.0,4.23,13.29,47.59359,-54.27349
2021-09-29 17:14:01+00:00,163.0,4.29,157.0,4.85,13.6,47.59359,-54.27349
2021-09-29 17:24:01+00:00,175.0,3.62,158.0,4.13,13.6,47.59359,-54.27349
2021-09-29 17:34:01+00:00,210.0,3.96,224.0,5.06,13.6,47.59359,-54.27349
2021-09-29 17:44:01+00:00,236.0,3.52,236.0,4.01,13.6,47.59359,-54.27349
2021-09-29 17:54:01+00:00,223.0,4.26,220.0,5.07,13.6,47.59359,-54.27349
2021-09-29 18:04:01+00:00,237.0,5.32,240.0,5.81,13.6,47.59359,-54.27349
2021-09-29 18:14:01+00:00,227.0,3.86,230.0,4.53,13.84,47.59359,-54.27349
2021-09-29 18:24:01+00:00,228.0,5.24,233.0,6.05,13.84,47.59359,-54.27349
2021-09-29 18:34:01+00:00,238.0,3.88,244.0,4.44,13.84,47.59359,-54.27349
2021-09-29 18:44:01+00:00,235.0,4.7,238.0,5.19,13.84,47.59359,-54.27349
2021-09-29 18:54:01+00:00,218.0,4.58,221.0,5.25,13.84,47.59359,-54.27349
2021-09-29 19:04:01+00:00,210.0,5.32,208.0,6.1,13.84,47.59359,-54.27349
2021-09-29 19:14:01+00:00,219.0,6.11,221.0,7.01,13.76,47.59359,-54.27349
2021-09-29 19:24:01+00:00,223.0,6.4,226.0,7.53,13.76,47.59359,-54.27349
2021-09-29 19:34:01+00:00,216.0,3.87,218.0,4.36,13.76,47.59359,-54.27349
2021-09-29 19:44:01+00:00,217.0,3.1,223.0,3.79,13.76,47.59359,-54.27349
2021-09-29 19:54:01+00:00,218.0,3.13,214.0,3.55,13.76,47.59359,-54.27349
2021-09-29 20:04:01+00:00,248.0,3.27,248.0,3.64,13.76,47.59359,-54.27349
2021-09-29 20:14:01+00:00,236.0,2.36,238.0,2.81,13.29,47.59359,-54.27349
2021-09-29 20:24:01+00:00,195.0,1.1,194.0,1.4,13.29,47.59359,-54.27349
2021-09-29 20:34:01+00:00,161.0,1.83,162.0,1.99,13.29,47.59359,-54.27349
2021-09-29 20:44:01+00:00,132.0,0.32,136.0,0.43,13.29,47.59359,-54.27349
2021-09-29 20:54:01+00:00,320.0,0.15,333.0,0.3,13.29,47.59359,-54.27349
2021-09-29 21:04:01+00:00,22.0,0.34,13.0,0.42,13.29,47.59359,-54.27349
2021-09-29 21:14:01+00:00,336.0,0.51,339.0,0.58,12.81,47.59359,-54.27349
2021-09-29 21:24:01+00:00,302.0,0.54,300.0,0.62,12.81,47.59359,-54.27349
2021-09-29 21:34:01+00:00,305.0,0.29,295.0,0.37,12.81,47.59359,-54.27349
2021-09-29 21:44:01+00:00,222.0,0.16,224.0,0.22,12.81,47.59359,-54.27349
2021-09-29 21:54:01+00:00,90.0,0.2,78.0,0.33,12.81,47.59359,-54.27349
2021-09-29 22:04:01+00:00,102.0,0.88,107.0,1.02,12.81,47.59359,-54.27349
2021-09-29 22:14:01+00:00,73.0,0.87,63.0,1.23,12.65,47.59359,-54.27349
2021-09-29 22:24:01+00:00,63.0,1.7,62.0,1.91,12.65,47.59359,-54.27349
2021-09-29 22:34:01+00:00,47.0,1.86,53.0,2.42,12.65,47.59359,-54.27349
2021-09-29 22:44:01+00:00,32.0,2.43,32.0,2.68,12.65,47.59359,-54.27349
2021-09-29 22:54:01+00:00,41.0,2.23,38.0,2.53,12.65,47.59359,-54.27349
2021-09-29 23:04:01+00:00,342.0,2.0,303.0,3.13,12.65,47.59359,-54.27349
2021-09-29 23:14:00+00:00,307.0,3.09,305.0,3.16,12.65,47.59359,-54.27349
2021-09-29 23:24:00+00:00,315.0,0.01,311.0,0.0,12.65,47.59359,-54.27349
2021-09-29 23:34:00+00:00,315.0,0.01,311.0,0.0,12.65,47.59359,-54.27349
2021-09-29 23:44:00+00:00,292.0,2.5,289.0,3.04,12.65,47.59359,-54.27349
2021-09-29 23:54:00+00:00,46.0,3.19,46.0,3.44,12.65,47.59359,-54.27349
